When you browse on this site, cookies collect data to enhance your experience and personalize the content and advertising you see.
Visit our Privacy Policy to learn more. By continuing to use the site, you agree to this use of cookies and data.
  • In Belgium
  • List of Countries
  • For 7 days
  • Water Temperature
  • Weather Map
  • Weather Widgets
  • user-avatar
    Login

    Hourly Weather Lemeshiha

    Today, 30 May, Saturday

    Time Temperature Precipitation Wind Pressure Humidity
    00:00 +12°C° 0 mm 4 mps 741 mmHg 89%
    01:00 +12°C° 0 mm 4 mps 741 mmHg 89%
    02:00 +12°C° 0 mm 4 mps 742 mmHg 89%
    03:00 +12°C° 0 mm 4 mps 741 mmHg 89%
    04:00 +12°C° 0 mm 4 mps 741 mmHg 89%
    05:00 +12°C° 0 mm 4 mps 741 mmHg 89%
    06:00 +12°C° 0 mm 5 mps 741 mmHg 86%
    07:00 +13°C° 0 mm 5 mps 741 mmHg 84%
    08:00 +13°C° 0 mm 6 mps 740 mmHg 81%
    09:00 +14°C° 0 mm 6 mps 740 mmHg 79%
    10:00 +14°C° 0 mm 6 mps 740 mmHg 77%
    11:00 +15°C° 0 mm 7 mps 740 mmHg 75%
    12:00 +15°C° 0.4 mm 7 mps 740 mmHg 78%
    13:00 +14°C° 0.4 mm 7 mps 740 mmHg 81%
    14:00 +14°C° 0.4 mm 7 mps 740 mmHg 84%
    15:00 +12°C° 0.4 mm 7 mps 739 mmHg 86%
    16:00 +12°C° 0.4 mm 7 mps 739 mmHg 88%
    17:00 +12°C° 0.4 mm 7 mps 738 mmHg 90%
    18:00 +12°C° 0 mm 7 mps 738 mmHg 89%
    19:00 +12°C° 0 mm 7 mps 738 mmHg 88%
    20:00 +12°C° 0 mm 7 mps 738 mmHg 87%
    21:00 +12°C° 0 mm 7 mps 738 mmHg 84%
    22:00 +12°C° 0 mm 7 mps 738 mmHg 81%
    23:00 +12°C° 0 mm 7 mps 738 mmHg 78%

    Tomorrow, 31 May, Sunday

    Time Temperature Precipitation Wind Pressure Humidity
    00:00 +12°C° 0 mm 7 mps 738 mmHg 78%
    01:00 +11°C° 0 mm 7 mps 738 mmHg 78%
    02:00 +11°C° 0 mm 7 mps 738 mmHg 79%
    03:00 +11°C° 0.2 mm 7 mps 738 mmHg 78%
    04:00 +10°C° 0.2 mm 7 mps 738 mmHg 77%
    05:00 +10°C° 0.2 mm 7 mps 738 mmHg 76%
    06:00 +11°C° 0 mm 7 mps 739 mmHg 70%
    07:00 +12°C° 0 mm 7 mps 739 mmHg 64%
    08:00 +12°C° 0 mm 7 mps 739 mmHg 58%
    09:00 +14°C° 0 mm 7 mps 740 mmHg 55%
    10:00 +15°C° 0 mm 7 mps 740 mmHg 52%
    11:00 +16°C° 0 mm 7 mps 740 mmHg 49%
    12:00 +16°C° 0 mm 7 mps 740 mmHg 50%
    13:00 +15°C° 0 mm 6 mps 740 mmHg 51%
    14:00 +15°C° 0 mm 6 mps 740 mmHg 52%
    15:00 +14°C° 0 mm 6 mps 741 mmHg 52%
    16:00 +14°C° 0 mm 6 mps 741 mmHg 52%
    17:00 +13°C° 0 mm 6 mps 741 mmHg 52%
    18:00 +12°C° 0 mm 5 mps 741 mmHg 57%
    19:00 +10°C° 0 mm 4 mps 742 mmHg 61%
    20:00 +8°C° 0 mm 3 mps 742 mmHg 66%
    21:00 +8°C° 0 mm 3 mps 742 mmHg 68%
    22:00 +7°C° 0 mm 3 mps 742 mmHg 71%
    23:00 +5°C° 0 mm 4 mps 743 mmHg 73%

    Day after tomorrow, 1 June, Monday

    Time Temperature Precipitation Wind Pressure Humidity
    00:00 +5°C° 0 mm 3 mps 743 mmHg 74%
    01:00 +4°C° 0 mm 3 mps 743 mmHg 74%
    02:00 +4°C° 0 mm 3 mps 743 mmHg 75%
    03:00 +4°C° 0 mm 4 mps 742 mmHg 73%
    04:00 +4°C° 0 mm 4 mps 742 mmHg 71%
    05:00 +4°C° 0 mm 4 mps 742 mmHg 70%
    06:00 +5°C° 0 mm 5 mps 742 mmHg 65%
    07:00 +6°C° 0 mm 5 mps 743 mmHg 61%
    08:00 +8°C° 0 mm 5 mps 743 mmHg 57%
    09:00 +8°C° 0 mm 5 mps 743 mmHg 57%
    10:00 +9°C° 0 mm 5 mps 743 mmHg 57%
    11:00 +9°C° 0 mm 5 mps 743 mmHg 57%
    12:00 +10°C° 0 mm 4 mps 743 mmHg 59%
    13:00 +10°C° 0 mm 4 mps 743 mmHg 61%
    14:00 +10°C° 0 mm 4 mps 743 mmHg 62%
    15:00 +11°C° 0 mm 4 mps 743 mmHg 63%
    16:00 +11°C° 0 mm 4 mps 743 mmHg 64%
    17:00 +11°C° 0 mm 3 mps 743 mmHg 64%
    18:00 +10°C° 0 mm 3 mps 743 mmHg 69%
    19:00 +9°C° 0 mm 2 mps 743 mmHg 73%
    20:00 +8°C° 0 mm 2 mps 743 mmHg 78%
    21:00 +7°C° 0 mm 2 mps 743 mmHg 81%
    22:00 +6°C° 0 mm 2 mps 743 mmHg 84%
    23:00 +5°C° 0 mm 2 mps 743 mmHg 88%

    2 June, Tuesday

    Time Temperature Precipitation Wind Pressure Humidity
    00:00 +5°C° 0 mm 2 mps 743 mmHg 88%
    01:00 +5°C° 0 mm 2 mps 743 mmHg 89%
    02:00 +3°C° 0 mm 3 mps 743 mmHg 89%
    03:00 +4°C° 0 mm 3 mps 743 mmHg 85%
    04:00 +5°C° 0 mm 3 mps 743 mmHg 81%
    05:00 +5°C° 0 mm 3 mps 743 mmHg 77%
    06:00 +7°C° 0 mm 4 mps 743 mmHg 69%
    07:00 +10°C° 0 mm 4 mps 743 mmHg 61%
    08:00 +12°C° 0 mm 4 mps 743 mmHg 54%
    09:00 +13°C° 0 mm 4 mps 743 mmHg 50%
    10:00 +14°C° 0 mm 4 mps 743 mmHg 47%
    11:00 +15°C° 0 mm 4 mps 743 mmHg 44%
    12:00 +15°C° 0 mm 4 mps 743 mmHg 44%
    13:00 +17°C° 0 mm 4 mps 742 mmHg 43%
    14:00 +17°C° 0 mm 4 mps 742 mmHg 43%
    15:00 +17°C° 0 mm 4 mps 742 mmHg 46%
    16:00 +15°C° 0 mm 4 mps 742 mmHg 49%
    17:00 +16°C° 0 mm 3 mps 742 mmHg 52%
    18:00 +13°C° 0 mm 3 mps 742 mmHg 59%
    19:00 +12°C° 0 mm 3 mps 741 mmHg 65%
    20:00 +11°C° 0 mm 3 mps 741 mmHg 72%
    21:00 +9°C° 0 mm 3 mps 741 mmHg 77%
    22:00 +8°C° 0 mm 2 mps 741 mmHg 82%
    23:00 +7°C° 0 mm 2 mps 741 mmHg 87%

    3 June, Wednesday

    Time Temperature Precipitation Wind Pressure Humidity
    00:00 +7°C° 0 mm 3 mps 741 mmHg 86%
    01:00 +7°C° 0 mm 3 mps 741 mmHg 85%
    02:00 +7°C° 0 mm 3 mps 741 mmHg 85%
    03:00 +8°C° 0 mm 3 mps 740 mmHg 83%
    04:00 +7°C° 0 mm 4 mps 740 mmHg 81%
    05:00 +8°C° 0 mm 4 mps 740 mmHg 79%
    06:00 +8°C° 0.1 mm 4 mps 740 mmHg 83%
    07:00 +8°C° 0.1 mm 4 mps 740 mmHg 86%
    08:00 +8°C° 0.1 mm 4 mps 740 mmHg 89%
    09:00 +10°C° 0.2 mm 4 mps 740 mmHg 90%
    10:00 +10°C° 0.2 mm 4 mps 739 mmHg 90%
    11:00 +11°C° 0.2 mm 4 mps 739 mmHg 90%
    12:00 +12°C° 0.6 mm 3 mps 739 mmHg 91%
    13:00 +12°C° 0.6 mm 3 mps 739 mmHg 92%
    14:00 +13°C° 0.6 mm 3 mps 739 mmHg 93%
    15:00 +13°C° 0.7 mm 3 mps 738 mmHg 93%
    16:00 +13°C° 0.7 mm 3 mps 738 mmHg 94%
    17:00 +13°C° 0.7 mm 3 mps 738 mmHg 95%
    18:00 +12°C° 0 mm 3 mps 738 mmHg 95%
    19:00 +12°C° 0 mm 3 mps 738 mmHg 95%
    20:00 +12°C° 0 mm 3 mps 738 mmHg 96%
    21:00 +11°C° 0.1 mm 3 mps 738 mmHg 96%
    22:00 +11°C° 0.1 mm 3 mps 738 mmHg 97%
    23:00 +11°C° 0.1 mm 3 mps 738 mmHg 98%

    4 June, Thursday

    Time Temperature Precipitation Wind Pressure Humidity
    00:00 +11°C° 0.4 mm 3 mps 738 mmHg 98%
    01:00 +11°C° 0.4 mm 3 mps 737 mmHg 98%
    02:00 +11°C° 0.4 mm 3 mps 737 mmHg 98%
    03:00 +11°C° 0.3 mm 3 mps 737 mmHg 98%
    04:00 +11°C° 0.3 mm 3 mps 737 mmHg 98%
    05:00 +12°C° 0.3 mm 2 mps 737 mmHg 98%
    06:00 +12°C° 0.3 mm 3 mps 737 mmHg 97%
    07:00 +12°C° 0.3 mm 3 mps 737 mmHg 97%
    08:00 +12°C° 0.3 mm 3 mps 737 mmHg 97%
    09:00 +13°C° 0.2 mm 3 mps 737 mmHg 94%
    10:00 +14°C° 0.2 mm 3 mps 737 mmHg 92%
    11:00 +16°C° 0.2 mm 3 mps 737 mmHg 89%
    12:00 +16°C° 0.6 mm 3 mps 737 mmHg 87%
    13:00 +17°C° 0.6 mm 3 mps 737 mmHg 86%
    14:00 +17°C° 0.6 mm 3 mps 737 mmHg 84%
    15:00 +17°C° 0.3 mm 3 mps 737 mmHg 84%
    16:00 +17°C° 0.3 mm 2 mps 737 mmHg 84%
    17:00 +17°C° 0.3 mm 2 mps 737 mmHg 85%
    18:00 +16°C° 0.1 mm 2 mps 736 mmHg 87%
    19:00 +15°C° 0.1 mm 2 mps 736 mmHg 89%
    20:00 +14°C° 0.1 mm 2 mps 736 mmHg 91%
    21:00 +14°C° 0.5 mm 2 mps 736 mmHg 93%
    22:00 +13°C° 0.5 mm 2 mps 736 mmHg 95%
    23:00 +13°C° 0.5 mm 2 mps 736 mmHg 97%
    Show more